| time (UTC) | temp F | wind direction | speed MPH | gust MPH | rain 1hr in | rain 24hr in | rain mn in | humidity % | barometer mb |
| 20260905160918 | 95 | 198 | 1.0 | 2.0 | 0.00 | 0.00 | 0.00 | 44 | 1016.5 |
| 20260905160412 | 95 | 189 | 1.0 | 7.0 | 0.00 | 0.00 | 0.00 | 45 | 1016.3 |
| 20260905155907 | 95 | 129 | 2.0 | 7.0 | 0.00 | 0.00 | 0.00 | 46 | 1016.6 |
| 20260905155407 | 93 | 254 | 2.0 | 3.0 | 0.00 | 0.00 | 0.00 | 47 | 1016.4 |
| 20260905154905 | 93 | 172 | 2.0 | 7.0 | 0.00 | 0.00 | 0.00 | 48 | 1016.3 |
| 20260905154401 | 92 | 113 | 4.0 | 6.0 | 0.00 | 0.00 | 0.00 | 48 | 1016.4 |
| 20260905153856 | 92 | 132 | 2.0 | 6.0 | 0.00 | 0.00 | 0.00 | 49 | 1016.2 |
| 20260905153353 | 92 | 150 | 2.0 | 6.0 | 0.00 | 0.00 | 0.00 | 49 | 1016.3 |
| 20260905152852 | 91 | 257 | 1.0 | 7.0 | 0.00 | 0.00 | 0.00 | 50 | 1016.3 |
| 20260905152351 | 91 | 130 | 2.0 | 4.0 | 0.00 | 0.00 | 0.00 | 50 | 1016.2 |
| 20260905151847 | 90 | 172 | 4.0 | 9.0 | 0.00 | 0.00 | 0.00 | 53 | 1016.2 |
| 20260905151342 | 90 | 200 | 3.0 | 7.0 | 0.00 | 0.00 | 0.00 | 52 | 1016.2 |
| 20260905150837 | 89 | 213 | 4.0 | 7.0 | 0.00 | 0.00 | 0.00 | 52 | 1016.4 |
| 20260905150331 | 90 | 221 | 3.0 | 4.0 | 0.00 | 0.00 | 0.00 | 52 | 1016.2 |
| 20260905145829 | 89 | 205 | 4.0 | 8.0 | 0.00 | 0.00 | 0.00 | 54 | 1016.1 |
| 20260905145328 | 88 | 148 | 4.0 | 6.0 | 0.00 | 0.00 | 0.00 | 53 | 1016.3 |
| 20260905144828 | 88 | 188 | 4.0 | 8.0 | 0.00 | 0.00 | 0.00 | 54 | 1016.2 |
| 20260905144323 | 88 | 217 | 3.0 | 7.0 | 0.00 | 0.00 | 0.00 | 55 | 1016.0 |
| 20260905143822 | 88 | 193 | 4.0 | 7.0 | 0.00 | 0.00 | 0.00 | 54 | 1016.2 |
| 20260905143316 | 87 | 181 | 4.0 | 4.0 | 0.00 | 0.00 | 0.00 | 55 | 1016.0 |
| 20260905142815 | 87 | 185 | 2.0 | 6.0 | 0.00 | 0.00 | 0.00 | 56 | 1016.2 |
| 20260905142309 | 86 | 209 | 1.0 | 3.0 | 0.00 | 0.00 | 0.00 | 57 | 1016.0 |
| 20260905141806 | 86 | 163 | 5.0 | 6.0 | 0.00 | 0.00 | 0.00 | 58 | 1016.2 |
| 20260905141301 | 86 | 191 | 3.0 | 4.0 | 0.00 | 0.00 | 0.00 | 58 | 1015.9 |
| 20260905140756 | 86 | 198 | 4.0 | 6.0 | 0.00 | 0.00 | 0.00 | 58 | 1016.0 |
| 20260905140251 | 85 | 184 | 1.0 | 4.0 | 0.00 | 0.00 | 0.00 | 59 | 1016.1 |
| 20260905135749 | 85 | 195 | 4.0 | 6.0 | 0.00 | 0.00 | 0.00 | 59 | 1016.2 |
| 20260905135246 | 84 | 177 | 2.0 | 6.0 | 0.00 | 0.00 | 0.00 | 60 | 1016.3 |
| 20260905134745 | 85 | 205 | 2.0 | 6.0 | 0.00 | 0.00 | 0.00 | 60 | 1016.3 |
| 20260905134245 | 84 | 194 | 3.0 | 6.0 | 0.00 | 0.00 | 0.00 | 60 | 1015.9 |
| 20260905133739 | 84 | 151 | 2.0 | 4.0 | 0.00 | 0.00 | 0.00 | 60 | 1016.2 |
| 20260905133235 | 84 | 179 | 2.0 | 7.0 | 0.00 | 0.00 | 0.00 | 61 | 1016.0 |
| 20260905132733 | 84 | 197 | 3.0 | 4.0 | 0.00 | 0.00 | 0.00 | 61 | 1016.0 |
| 20260905132230 | 83 | 214 | 2.0 | 3.0 | 0.00 | 0.00 | 0.00 | 61 | 1016.0 |
| 20260905131724 | 83 | 136 | 4.0 | 6.0 | 0.00 | 0.00 | 0.00 | 62 | 1015.9 |
| 20260905131220 | 83 | 173 | 4.0 | 6.0 | 0.00 | 0.00 | 0.00 | 63 | 1015.9 |
| 20260905130714 | 82 | 166 | 2.0 | 6.0 | 0.00 | 0.00 | 0.00 | 63 | 1015.9 |
| 20260905130214 | 82 | 177 | 2.0 | 6.0 | 0.00 | 0.00 | 0.00 | 64 | 1015.7 |
| 20260905125709 | 82 | 184 | 2.0 | 3.0 | 0.00 | 0.00 | 0.00 | 64 | 1015.7 |
| 20260905125204 | 81 | 158 | 2.0 | 4.0 | 0.00 | 0.00 | 0.00 | 65 | 1015.6 |
| 20260905124700 | 81 | 216 | 2.0 | 2.0 | 0.00 | 0.00 | 0.00 | 65 | 1015.6 |
| 20260905124155 | 80 | 155 | 1.0 | 2.0 | 0.00 | 0.00 | 0.00 | 66 | 1015.7 |
| 20260905123650 | 80 | 163 | 1.0 | 2.0 | 0.00 | 0.00 | 0.00 | 67 | 1015.6 |
| 20260905123148 | 80 | 144 | 1.0 | 3.0 | 0.00 | 0.00 | 0.00 | 67 | 1015.6 |
| 20260905122647 | 80 | 139 | 1.0 | 2.0 | 0.00 | 0.00 | 0.00 | 67 | 1015.5 |
| 20260905122142 | 80 | 160 | 1.0 | 2.0 | 0.00 | 0.00 | 0.00 | 67 | 1015.5 |
| 20260905121637 | 79 | 127 | 0.0 | 2.0 | 0.00 | 0.00 | 0.00 | 68 | 1015.5 |
| 20260905121132 | 79 | 123 | 0.0 | 0.0 | 0.00 | 0.00 | 0.00 | 68 | 1015.4 |
| 20260905120631 | 79 | 121 | 0.0 | 0.0 | 0.00 | 0.00 | 0.00 | 68 | 1015.4 |
| 20260905120126 | 80 | 150 | 0.0 | 0.0 | 0.00 | 0.00 | 0.00 | 67 | 1015.3 |
| 20260905115626 | 80 | 129 | 0.0 | 0.0 | 0.00 | 0.00 | 0.00 | 67 | 1015.2 |
| 20260905115121 | 81 | 126 | 0.0 | 0.0 | 0.00 | 0.00 | 0.00 | 66 | 1015.2 |
| 20260905114620 | 81 | 130 | 0.0 | 1.0 | 0.00 | 0.00 | 0.00 | 65 | 1015.2 |
| 20260905114119 | 81 | 190 | 1.0 | 2.0 | 0.00 | 0.00 | 0.00 | 65 | 1015.1 |
| 20260905113614 | 81 | 168 | 2.0 | 2.0 | 0.00 | 0.00 | 0.00 | 64 | 1015.1 |
| 20260905113109 | 81 | 220 | 2.0 | 3.0 | 0.00 | 0.00 | 0.00 | 64 | 1015.2 |
| 20260905112558 | 81 | 200 | 1.0 | 3.0 | 0.00 | 0.00 | 0.00 | 64 | 1015.1 |
| 20260905112054 | 81 | 167 | 2.0 | 2.0 | 0.00 | 0.00 | 0.00 | 64 | 1015.1 |
| 20260905111549 | 82 | 182 | 1.0 | 1.0 | 0.00 | 0.00 | 0.00 | 64 | 1015.2 |
| 20260905111048 | 82 | 176 | 1.0 | 2.0 | 0.00 | 0.00 | 0.00 | 64 | 1015.1 |
| 20260905110547 | 82 | 184 | 1.0 | 2.0 | 0.00 | 0.00 | 0.00 | 63 | 1015.1 |
| 20260905110042 | 82 | 151 | 3.0 | 4.0 | 0.00 | 0.00 | 0.00 | 63 | 1015.3 |
| 20260905105537 | 82 | 221 | 2.0 | 4.0 | 0.00 | 0.00 | 0.00 | 62 | 1015.3 |
| 20260905105036 | 82 | 206 | 3.0 | 4.0 | 0.00 | 0.00 | 0.00 | 62 | 1015.2 |
| 20260905104532 | 83 | 218 | 3.0 | 7.0 | 0.00 | 0.00 | 0.00 | 62 | 1015.0 |
| 20260905104032 | 83 | 177 | 2.0 | 6.0 | 0.00 | 0.00 | 0.00 | 62 | 1015.4 |
| 20260905103527 | 83 | 181 | 2.0 | 3.0 | 0.00 | 0.00 | 0.00 | 61 | 1015.1 |
| 20260905103023 | 83 | 158 | 1.0 | 6.0 | 0.00 | 0.00 | 0.00 | 61 | 1015.4 |
| 20260905102519 | 83 | 201 | 1.0 | 6.0 | 0.00 | 0.00 | 0.00 | 61 | 1015.1 |
| 20260905102015 | 83 | 140 | 2.0 | 4.0 | 0.00 | 0.00 | 0.00 | 61 | 1015.1 |
| 20260905101513 | 83 | 164 | 3.0 | 4.0 | 0.00 | 0.00 | 0.00 | 60 | 1015.0 |
| 20260905101012 | 84 | 185 | 1.0 | 2.0 | 0.00 | 0.00 | 0.00 | 60 | 1015.0 |
| 20260905100508 | 84 | 188 | 3.0 | 4.0 | 0.00 | 0.00 | 0.00 | 60 | 1015.0 |
| 20260905100007 | 84 | 176 | 4.0 | 6.0 | 0.00 | 0.00 | 0.00 | 60 | 1015.2 |
| 20260905095501 | 84 | 214 | 2.0 | 3.0 | 0.00 | 0.00 | 0.00 | 59 | 1015.1 |
| 20260905094956 | 84 | 215 | 3.0 | 6.0 | 0.00 | 0.00 | 0.00 | 59 | 1015.1 |
| 20260905094452 | 84 | 190 | 3.0 | 6.0 | 0.00 | 0.00 | 0.00 | 59 | 1015.1 |
| 20260905093950 | 84 | 173 | 1.0 | 4.0 | 0.00 | 0.00 | 0.00 | 59 | 1015.2 |
| 20260905093446 | 84 | 216 | 5.0 | 9.0 | 0.00 | 0.00 | 0.00 | 58 | 1015.0 |
| 20260905092942 | 85 | 193 | 2.0 | 4.0 | 0.00 | 0.00 | 0.00 | 58 | 1015.3 |
| 20260905092437 | 85 | 196 | 4.0 | 4.0 | 0.00 | 0.00 | 0.00 | 58 | 1014.9 |
| 20260905091932 | 85 | 174 | 2.0 | 7.0 | 0.00 | 0.00 | 0.00 | 57 | 1015.1 |
| 20260905091427 | 85 | 187 | 2.0 | 8.0 | 0.00 | 0.00 | 0.00 | 57 | 1015.3 |
| 20260905090926 | 85 | 173 | 1.0 | 6.0 | 0.00 | 0.00 | 0.00 | 57 | 1015.1 |
| 20260905090422 | 85 | 195 | 2.0 | 4.0 | 0.00 | 0.00 | 0.00 | 57 | 1015.3 |
| 20260905085921 | 86 | 134 | 0.0 | 3.0 | 0.00 | 0.00 | 0.00 | 57 | 1015.2 |
| 20260905085420 | 85 | 185 | 7.0 | 9.0 | 0.00 | 0.00 | 0.00 | 56 | 1015.1 |
| 20260905084917 | 86 | 162 | 2.0 | 7.0 | 0.00 | 0.00 | 0.00 | 57 | 1015.2 |
| 20260905084416 | 86 | 166 | 4.0 | 6.0 | 0.00 | 0.00 | 0.00 | 57 | 1014.9 |
| 20260905083911 | 86 | 184 | 2.0 | 3.0 | 0.00 | 0.00 | 0.00 | 57 | 1015.1 |
| 20260905083407 | 86 | 193 | 2.0 | 4.0 | 0.00 | 0.00 | 0.00 | 56 | 1015.2 |
| 20260905082902 | 86 | 192 | 4.0 | 6.0 | 0.00 | 0.00 | 0.00 | 56 | 1014.9 |
| 20260905082358 | 86 | 179 | 4.0 | 4.0 | 0.00 | 0.00 | 0.00 | 56 | 1014.9 |
| 20260905081853 | 86 | 204 | 4.0 | 4.0 | 0.00 | 0.00 | 0.00 | 56 | 1014.8 |
| 20260905081348 | 86 | 175 | 5.0 | 7.0 | 0.00 | 0.00 | 0.00 | 56 | 1014.8 |
| 20260905080846 | 86 | 179 | 4.0 | 6.0 | 0.00 | 0.00 | 0.00 | 56 | 1014.6 |
| 20260905080341 | 86 | 144 | 1.0 | 6.0 | 0.00 | 0.00 | 0.00 | 56 | 1014.6 |
| 20260905075840 | 86 | 187 | 5.0 | 7.0 | 0.00 | 0.00 | 0.00 | 55 | 1014.7 |
| 20260905075339 | 87 | 157 | 2.0 | 4.0 | 0.00 | 0.00 | 0.00 | 55 | 1014.8 |
| 20260905074839 | 87 | 148 | 2.0 | 13.0 | 0.00 | 0.00 | 0.00 | 55 | 1014.6 |
| 20260905074335 | 87 | 173 | 4.0 | 6.0 | 0.00 | 0.00 | 0.00 | 55 | 1014.7 |
| 20260905073830 | 87 | 200 | 5.0 | 8.0 | 0.00 | 0.00 | 0.00 | 54 | 1014.8 |
| 20260905073326 | 87 | 193 | 3.0 | 7.0 | 0.00 | 0.00 | 0.00 | 54 | 1014.8 |
| 20260905072826 | 87 | 213 | 2.0 | 9.0 | 0.00 | 0.00 | 0.00 | 54 | 1014.9 |
| 20260905072320 | 87 | 215 | 5.0 | 7.0 | 0.00 | 0.00 | 0.00 | 54 | 1014.8 |
| 20260905071812 | 87 | 137 | 2.0 | 6.0 | 0.00 | 0.00 | 0.00 | 54 | 1015.0 |
| 20260905071308 | 86 | 129 | 2.0 | 3.0 | 0.00 | 0.00 | 0.00 | 55 | 1014.8 |
| 20260905070802 | 86 | 207 | 3.0 | 6.0 | 0.00 | 0.00 | 0.00 | 55 | 1014.8 |
| 20260905070258 | 86 | 160 | 1.0 | 3.0 | 0.00 | 0.00 | 0.00 | 55 | 1014.8 |
| 20260905065757 | 86 | 159 | 3.0 | 6.0 | 0.00 | 0.00 | 0.00 | 56 | 1015.0 |
| 20260905065250 | 85 | 171 | 1.0 | 6.0 | 0.00 | 0.00 | 0.00 | 57 | 1014.8 |
| 20260905064746 | 85 | 196 | 1.0 | 2.0 | 0.00 | 0.00 | 0.00 | 57 | 1015.0 |
| 20260905064241 | 85 | 166 | 2.0 | 2.0 | 0.00 | 0.00 | 0.00 | 57 | 1014.8 |
| 20260905063740 | 85 | 203 | 1.0 | 1.0 | 0.00 | 0.00 | 0.00 | 57 | 1015.0 |
| 20260905063236 | 86 | 212 | 1.0 | 2.0 | 0.00 | 0.00 | 0.00 | 56 | 1014.9 |
| 20260905062732 | 86 | 167 | 2.0 | 4.0 | 0.00 | 0.00 | 0.00 | 56 | 1015.0 |
| 20260905062231 | 86 | 138 | 2.0 | 3.0 | 0.00 | 0.00 | 0.00 | 56 | 1015.0 |
| 20260905061726 | 86 | 157 | 1.0 | 2.0 | 0.00 | 0.00 | 0.00 | 56 | 1015.1 |
| 20260905061220 | 86 | 154 | 0.0 | 1.0 | 0.00 | 0.00 | 0.00 | 56 | 1015.0 |
| 20260905060715 | 86 | 150 | 1.0 | 1.0 | 0.00 | 0.00 | 0.00 | 55 | 1015.0 |
| 20260905060212 | 86 | 137 | 0.0 | 3.0 | 0.00 | 0.00 | 0.00 | 55 | 1015.0 |
| 20260905055710 | 86 | 235 | 1.0 | 2.0 | 0.00 | 0.00 | 0.00 | 55 | 1014.9 |
| 20260905055205 | 86 | 131 | 1.0 | 2.0 | 0.00 | 0.00 | 0.00 | 54 | 1015.1 |
| 20260905054700 | 87 | 184 | 4.0 | 6.0 | 0.00 | 0.00 | 0.00 | 54 | 1015.1 |
| 20260905054156 | 87 | 151 | 1.0 | 7.0 | 0.00 | 0.00 | 0.00 | 54 | 1015.0 |
| 20260905053656 | 87 | 212 | 3.0 | 7.0 | 0.00 | 0.00 | 0.00 | 53 | 1015.1 |
| 20260905053151 | 87 | 192 | 1.0 | 3.0 | 0.00 | 0.00 | 0.00 | 53 | 1015.1 |
| 20260905052645 | 87 | 178 | 2.0 | 6.0 | 0.00 | 0.00 | 0.00 | 53 | 1015.2 |
| 20260905052140 | 87 | 188 | 1.0 | 3.0 | 0.00 | 0.00 | 0.00 | 53 | 1015.0 |
| 20260905051635 | 87 | 215 | 0.0 | 2.0 | 0.00 | 0.00 | 0.00 | 53 | 1015.2 |
| 20260905051132 | 87 | 160 | 0.0 | 2.0 | 0.00 | 0.00 | 0.00 | 53 | 1015.1 |
| 20260905050627 | 87 | 91 | 0.0 | 4.0 | 0.00 | 0.00 | 0.00 | 53 | 1015.0 |
| 20260905050119 | 88 | 201 | 2.0 | 3.0 | 0.00 | 0.00 | 0.00 | 53 | 1015.0 |
| 20260905045618 | 88 | 160 | 2.0 | 2.0 | 0.00 | 0.00 | 0.00 | 52 | 1015.1 |
| 20260905045114 | 88 | 187 | 1.0 | 3.0 | 0.00 | 0.00 | 0.00 | 52 | 1015.1 |
| 20260905044613 | 88 | 204 | 2.0 | 6.0 | 0.00 | 0.00 | 0.00 | 52 | 1015.0 |
| 20260905044108 | 88 | 170 | 2.0 | 6.0 | 0.00 | 0.00 | 0.00 | 52 | 1015.0 |
| 20260905043607 | 88 | 148 | 1.0 | 3.0 | 0.00 | 0.00 | 0.00 | 52 | 1015.0 |
| 20260905043103 | 88 | 107 | 1.0 | 2.0 | 0.00 | 0.00 | 0.00 | 52 | 1015.1 |
| 20260905042601 | 89 | 158 | 2.0 | 8.0 | 0.00 | 0.00 | 0.00 | 51 | 1015.2 |
| 20260905042057 | 89 | 163 | 3.0 | 3.0 | 0.00 | 0.00 | 0.00 | 51 | 1015.1 |
| 20260905041552 | 89 | 163 | 1.0 | 4.0 | 0.00 | 0.00 | 0.00 | 51 | 1014.9 |
| 20260905041047 | 89 | 149 | 2.0 | 7.0 | 0.00 | 0.00 | 0.00 | 51 | 1015.1 |
| 20260905040547 | 89 | 193 | 3.0 | 4.0 | 0.00 | 0.00 | 0.00 | 51 | 1015.0 |
| 20260905040046 | 89 | 168 | 1.0 | 7.0 | 0.00 | 0.00 | 0.00 | 51 | 1015.0 |
| 20260905035541 | 89 | 139 | 0.0 | 3.0 | 0.00 | 0.00 | 0.00 | 51 | 1014.9 |
| 20260905035038 | 90 | 87 | 0.0 | 2.0 | 0.00 | 0.00 | 0.00 | 50 | 1015.0 |
| 20260905034533 | 90 | 161 | 1.0 | 3.0 | 0.00 | 0.00 | 0.00 | 50 | 1014.8 |
| 20260905034033 | 90 | 139 | 0.0 | 3.0 | 0.00 | 0.00 | 0.00 | 50 | 1014.9 |
| 20260905033527 | 90 | 131 | 1.0 | 2.0 | 0.00 | 0.00 | 0.00 | 49 | 1015.0 |
| 20260905033023 | 90 | 186 | 3.0 | 4.0 | 0.00 | 0.00 | 0.00 | 49 | 1014.8 |
| 20260905032517 | 90 | 145 | 0.0 | 3.0 | 0.00 | 0.00 | 0.00 | 50 | 1014.9 |
| 20260905032013 | 90 | 118 | 0.0 | 7.0 | 0.00 | 0.00 | 0.00 | 49 | 1014.6 |
| 20260905031509 | 90 | 127 | 1.0 | 6.0 | 0.00 | 0.00 | 0.00 | 50 | 1014.4 |
| 20260905031003 | 90 | 153 | 0.0 | 2.0 | 0.00 | 0.00 | 0.00 | 50 | 1014.7 |
| 20260905030458 | 90 | 158 | 0.0 | 3.0 | 0.00 | 0.00 | 0.00 | 50 | 1014.3 |
| 20260905025957 | 90 | 171 | 0.0 | 2.0 | 0.00 | 0.00 | 0.00 | 50 | 1014.2 |
| 20260905025453 | 90 | 147 | 0.0 | 1.0 | 0.00 | 0.00 | 0.00 | 49 | 1014.3 |
| 20260905024949 | 90 | 193 | 1.0 | 1.0 | 0.00 | 0.00 | 0.00 | 49 | 1014.1 |
| 20260905024449 | 90 | 158 | 0.0 | 1.0 | 0.00 | 0.00 | 0.00 | 49 | 1014.1 |
| 20260905023945 | 90 | 127 | 0.0 | 1.0 | 0.00 | 0.00 | 0.00 | 49 | 1013.9 |
| 20260905023440 | 91 | 106 | 0.0 | 0.0 | 0.00 | 0.00 | 0.00 | 48 | 1013.9 |
| 20260905022939 | 91 | 112 | 0.0 | 1.0 | 0.00 | 0.00 | 0.00 | 48 | 1013.9 |
| 20260905022434 | 91 | 183 | 0.0 | 2.0 | 0.00 | 0.00 | 0.00 | 47 | 1013.8 |
| 20260905021929 | 91 | 26 | 1.0 | 1.0 | 0.00 | 0.00 | 0.00 | 47 | 1013.7 |
| 20260905021424 | 91 | 89 | 0.0 | 1.0 | 0.00 | 0.00 | 0.00 | 47 | 1013.5 |
| 20260905020919 | 92 | 53 | 1.0 | 2.0 | 0.00 | 0.00 | 0.00 | 47 | 1013.5 |
| 20260905020418 | 92 | 147 | 0.0 | 0.0 | 0.00 | 0.00 | 0.00 | 47 | 1013.4 |
| 20260905015918 | 92 | 258 | 0.0 | 1.0 | 0.00 | 0.00 | 0.00 | 46 | 1013.5 |
| 20260905015416 | 92 | 66 | 0.0 | 2.0 | 0.00 | 0.00 | 0.00 | 46 | 1013.4 |
| 20260905014916 | 92 | 120 | 0.0 | 0.0 | 0.00 | 0.00 | 0.00 | 46 | 1013.4 |
| 20260905014411 | 93 | 185 | 1.0 | 2.0 | 0.00 | 0.00 | 0.00 | 45 | 1013.1 |
| 20260905013907 | 93 | 116 | 0.0 | 3.0 | 0.00 | 0.00 | 0.00 | 45 | 1013.3 |
| 20260905013403 | 93 | 179 | 0.0 | 1.0 | 0.00 | 0.00 | 0.00 | 46 | 1013.2 |
| 20260905012858 | 93 | 147 | 1.0 | 1.0 | 0.00 | 0.00 | 0.00 | 45 | 1013.0 |
| 20260905012353 | 93 | 185 | 1.0 | 1.0 | 0.00 | 0.00 | 0.00 | 45 | 1012.9 |
| 20260905011850 | 93 | 113 | 0.0 | 1.0 | 0.00 | 0.00 | 0.00 | 45 | 1012.8 |
| 20260905011345 | 94 | 112 | 0.0 | 2.0 | 0.00 | 0.00 | 0.00 | 44 | 1012.9 |
| 20260905010840 | 94 | 87 | 1.0 | 1.0 | 0.00 | 0.00 | 0.00 | 44 | 1012.7 |
| 20260905010330 | 94 | 163 | 2.0 | 3.0 | 0.00 | 0.00 | 0.00 | 44 | 1012.8 |
| 20260905005826 | 95 | 127 | 1.0 | 3.0 | 0.00 | 0.00 | 0.00 | 43 | 1012.6 |
| 20260905005322 | 95 | 143 | 1.0 | 2.0 | 0.00 | 0.00 | 0.00 | 43 | 1012.7 |
| 20260905004816 | 95 | 72 | 0.0 | 0.0 | 0.00 | 0.00 | 0.00 | 43 | 1012.6 |
| 20260905004311 | 96 | 96 | 0.0 | 2.0 | 0.00 | 0.00 | 0.00 | 42 | 1012.5 |
| 20260905003806 | 96 | 181 | 1.0 | 3.0 | 0.00 | 0.00 | 0.00 | 42 | 1012.6 |
| 20260905003302 | 96 | 150 | 1.0 | 2.0 | 0.00 | 0.00 | 0.00 | 42 | 1012.5 |
| 20260905002758 | 96 | 24 | 1.0 | 3.0 | 0.00 | 0.00 | 0.00 | 42 | 1012.6 |
| 20260905002257 | 97 | 211 | 4.0 | 6.0 | 0.00 | 0.00 | 0.00 | 41 | 1012.7 |
| 20260905001752 | 97 | 66 | 2.0 | 3.0 | 0.00 | 0.00 | 0.00 | 41 | 1012.5 |
| 20260905001252 | 98 | 136 | 0.0 | 3.0 | 0.00 | 0.00 | 0.00 | 41 | 1012.6 |
| 20260905000747 | 98 | 184 | 1.0 | 4.0 | 0.00 | 0.00 | 0.00 | 40 | 1012.5 |
| 20260905000243 | 98 | 31 | 2.0 | 4.0 | 0.00 | 0.00 | 0.00 | 40 | 1012.6 |
| 20260904235738 | 98 | 107 | 2.0 | 4.0 | 0.00 | 0.00 | 0.00 | 40 | 1012.5 |
| 20260904235232 | 98 | 192 | 0.0 | 10.0 | 0.00 | 0.00 | 0.00 | 39 | 1012.5 |
| 20260904234727 | 100 | 169 | 7.0 | 9.0 | 0.00 | 0.00 | 0.00 | 39 | 1012.5 |
| 20260904234222 | 99 | 176 | 0.0 | 3.0 | 0.00 | 0.00 | 0.00 | 39 | 1012.5 |
| 20260904233718 | 99 | 50 | 2.0 | 3.0 | 0.00 | 0.00 | 0.00 | 38 | 1012.4 |
| 20260904233214 | 99 | 265 | 1.0 | 9.0 | 0.00 | 0.00 | 0.00 | 39 | 1012.6 |
| 20260904232711 | 100 | 184 | 3.0 | 8.0 | 0.00 | 0.00 | 0.00 | 38 | 1012.5 |
| 20260904232207 | 100 | 153 | 2.0 | 8.0 | 0.00 | 0.00 | 0.00 | 38 | 1012.4 |
| 20260904231701 | 100 | 89 | 1.0 | 2.0 | 0.00 | 0.00 | 0.00 | 37 | 1012.4 |
| 20260904231156 | 100 | 52 | 2.0 | 3.0 | 0.00 | 0.00 | 0.00 | 38 | 1012.4 |
| 20260904230651 | 100 | 74 | 1.0 | 2.0 | 0.00 | 0.00 | 0.00 | 38 | 1012.5 |
| 20260904230146 | 100 | 8 | 2.0 | 10.0 | 0.00 | 0.00 | 0.00 | 38 | 1012.3 |
| 20260904225644 | 99 | 212 | 1.0 | 7.0 | 0.00 | 0.00 | 0.00 | 39 | 1012.4 |
| 20260904225139 | 99 | 164 | 1.0 | 4.0 | 0.00 | 0.00 | 0.00 | 39 | 1012.4 |
| 20260904224633 | 100 | 177 | 2.0 | 6.0 | 0.00 | 0.00 | 0.00 | 38 | 1012.3 |
| 20260904224128 | 100 | 197 | 1.0 | 3.0 | 0.00 | 0.00 | 0.00 | 38 | 1012.3 |
| 20260904223627 | 100 | 199 | 4.0 | 4.0 | 0.00 | 0.00 | 0.00 | 38 | 1012.5 |
| 20260904223123 | 100 | 208 | 4.0 | 8.0 | 0.00 | 0.00 | 0.00 | 39 | 1012.2 |
| 20260904222619 | 101 | 86 | 1.0 | 2.0 | 0.00 | 0.00 | 0.00 | 37 | 1012.4 |
| 20260904222114 | 101 | 143 | 1.0 | 3.0 | 0.00 | 0.00 | 0.00 | 38 | 1012.4 |
| 20260904221613 | 101 | 202 | 1.0 | 2.0 | 0.00 | 0.00 | 0.00 | 37 | 1012.5 |
| 20260904221113 | 101 | 181 | 2.0 | 8.0 | 0.00 | 0.00 | 0.00 | 39 | 1012.4 |
| 20260904220608 | 99 | 201 | 5.0 | 11.0 | 0.00 | 0.00 | 0.00 | 40 | 1012.4 |
| 20260904215558 | 100 | 344 | 2.0 | 4.0 | 0.00 | 0.00 | 0.00 | 39 | 1012.5 |
| 20260904215053 | 101 | 175 | 1.0 | 2.0 | 0.00 | 0.00 | 0.00 | 38 | 1012.4 |
| 20260904214543 | 100 | 262 | 4.0 | 10.0 | 0.00 | 0.00 | 0.00 | 39 | 1012.4 |
| 20260904214039 | 101 | 188 | 3.0 | 6.0 | 0.00 | 0.00 | 0.00 | 38 | 1012.6 |
| 20260904213536 | 102 | 168 | 1.0 | 4.0 | 0.00 | 0.00 | 0.00 | 37 | 1012.7 |
| 20260904213034 | 103 | 191 | 5.0 | 6.0 | 0.00 | 0.00 | 0.00 | 36 | 1012.6 |
| 20260904212532 | 102 | 348 | 2.0 | 6.0 | 0.00 | 0.00 | 0.00 | 37 | 1012.7 |
| 20260904212028 | 101 | 205 | 3.0 | 7.0 | 0.00 | 0.00 | 0.00 | 38 | 1012.7 |
| 20260904211522 | 102 | 158 | 4.0 | 7.0 | 0.00 | 0.00 | 0.00 | 37 | 1012.8 |
| 20260904211018 | 103 | 138 | 2.0 | 7.0 | 0.00 | 0.00 | 0.00 | 37 | 1012.8 |
| 20260904210517 | 103 | 153 | 1.0 | 3.0 | 0.00 | 0.00 | 0.00 | 35 | 1012.7 |
| 20260904210013 | 104 | 189 | 4.0 | 9.0 | 0.00 | 0.00 | 0.00 | 35 | 1012.7 |
| 20260904205508 | 103 | 191 | 4.0 | 6.0 | 0.00 | 0.00 | 0.00 | 36 | 1012.8 |
| 20260904205005 | 101 | 214 | 3.0 | 8.0 | 0.00 | 0.00 | 0.00 | 36 | 1012.9 |
| 20260904204500 | 101 | 244 | 6.0 | 9.0 | 0.00 | 0.00 | 0.00 | 37 | 1013.1 |
| 20260904203956 | 102 | 199 | 7.0 | 9.0 | 0.00 | 0.00 | 0.00 | 37 | 1013.1 |
| 20260904203452 | 101 | 121 | 3.0 | 6.0 | 0.00 | 0.00 | 0.00 | 36 | 1013.2 |
| 20260904202948 | 102 | 215 | 4.0 | 13.0 | 0.00 | 0.00 | 0.00 | 36 | 1013.1 |
| 20260904202444 | 102 | 194 | 3.0 | 6.0 | 0.00 | 0.00 | 0.00 | 35 | 1013.2 |
| 20260904201940 | 102 | 96 | 2.0 | 7.0 | 0.00 | 0.00 | 0.00 | 36 | 1013.3 |
| 20260904201435 | 102 | 163 | 6.0 | 9.0 | 0.00 | 0.00 | 0.00 | 35 | 1013.5 |
| 20260904200931 | 102 | 205 | 4.0 | 10.0 | 0.00 | 0.00 | 0.00 | 35 | 1013.2 |
| 20260904200429 | 103 | 162 | 4.0 | 8.0 | 0.00 | 0.00 | 0.00 | 36 | 1013.5 |
| 20260904195924 | 101 | 7 | 0.0 | 4.0 | 0.00 | 0.00 | 0.00 | 35 | 1013.4 |
| 20260904195422 | 100 | 209 | 10.0 | 11.0 | 0.00 | 0.00 | 0.00 | 37 | 1013.6 |
| 20260904194921 | 100 | 220 | 5.0 | 9.0 | 0.00 | 0.00 | 0.00 | 37 | 1013.5 |
| 20260904194421 | 102 | 194 | 8.0 | 11.0 | 0.00 | 0.00 | 0.00 | 36 | 1013.7 |
| 20260904193917 | 101 | 173 | 3.0 | 7.0 | 0.00 | 0.00 | 0.00 | 37 | 1013.6 |
| 20260904193412 | 102 | 206 | 4.0 | 10.0 | 0.00 | 0.00 | 0.00 | 37 | 1013.5 |
| 20260904192907 | 101 | 103 | 2.0 | 8.0 | 0.00 | 0.00 | 0.00 | 37 | 1013.6 |
| 20260904192403 | 101 | 214 | 3.0 | 8.0 | 0.00 | 0.00 | 0.00 | 37 | 1013.8 |
| 20260904191859 | 100 | 177 | 6.0 | 10.0 | 0.00 | 0.00 | 0.00 | 38 | 1013.8 |
| 20260904191355 | 101 | 239 | 5.0 | 8.0 | 0.00 | 0.00 | 0.00 | 37 | 1013.8 |
| 20260904190852 | 100 | 217 | 4.0 | 9.0 | 0.00 | 0.00 | 0.00 | 38 | 1013.9 |
| 20260904190347 | 99 | 201 | 4.0 | 9.0 | 0.00 | 0.00 | 0.00 | 40 | 1013.9 |
| 20260904185843 | 99 | 174 | 6.0 | 13.0 | 0.00 | 0.00 | 0.00 | 39 | 1014.2 |
| 20260904185338 | 98 | 196 | 4.0 | 10.0 | 0.00 | 0.00 | 0.00 | 40 | 1014.1 |
| 20260904184838 | 99 | 183 | 11.0 | 16.0 | 0.00 | 0.00 | 0.00 | 40 | 1014.0 |
| 20260904184333 | 99 | 178 | 6.0 | 11.0 | 0.00 | 0.00 | 0.00 | 40 | 1014.1 |
| 20260904183828 | 100 | 251 | 1.0 | 8.0 | 0.00 | 0.00 | 0.00 | 39 | 1014.0 |
| 20260904183329 | 100 | 54 | 2.0 | 4.0 | 0.00 | 0.00 | 0.00 | 39 | 1014.2 |
| 20260904182824 | 99 | 318 | 2.0 | 4.0 | 0.00 | 0.00 | 0.00 | 40 | 1014.2 |
| 20260904182319 | 98 | 18 | 3.0 | 11.0 | 0.00 | 0.00 | 0.00 | 41 | 1014.6 |
| 20260904181815 | 96 | 41 | 1.0 | 9.0 | 0.00 | 0.00 | 0.00 | 44 | 1014.3 |
| 20260904181314 | 98 | 182 | 9.0 | 15.0 | 0.00 | 0.00 | 0.00 | 44 | 1014.6 |
| 20260904180809 | 97 | 120 | 4.0 | 9.0 | 0.00 | 0.00 | 0.00 | 44 | 1014.6 |
| 20260904180305 | 95 | 220 | 3.0 | 7.0 | 0.00 | 0.00 | 0.00 | 45 | 1014.7 |
| 20260904175804 | 95 | 217 | 4.0 | 8.0 | 0.00 | 0.00 | 0.00 | 46 | 1014.7 |
| 20260904175305 | 96 | 196 | 9.0 | 11.0 | 0.00 | 0.00 | 0.00 | 46 | 1014.8 |
| 20260904174758 | 95 | 205 | 5.0 | 9.0 | 0.00 | 0.00 | 0.00 | 47 | 1014.8 |
| 20260904174254 | 94 | 186 | 7.0 | 8.0 | 0.00 | 0.00 | 0.00 | 48 | 1014.9 |
| 20260904173749 | 96 | 194 | 7.0 | 9.0 | 0.00 | 0.00 | 0.00 | 47 | 1015.0 |
| 20260904173244 | 96 | 196 | 2.0 | 10.0 | 0.00 | 0.00 | 0.00 | 47 | 1015.0 |
| 20260904172741 | 94 | 175 | 3.0 | 8.0 | 0.00 | 0.00 | 0.00 | 48 | 1015.2 |
| 20260904172239 | 93 | 194 | 5.0 | 11.0 | 0.00 | 0.00 | 0.00 | 49 | 1015.2 |
| 20260904171734 | 94 | 214 | 5.0 | 8.0 | 0.00 | 0.00 | 0.00 | 48 | 1015.1 |
| 20260904171229 | 94 | 164 | 8.0 | 10.0 | 0.00 | 0.00 | 0.00 | 49 | 1015.4 |
| 20260904170725 | 94 | 204 | 4.0 | 7.0 | 0.00 | 0.00 | 0.00 | 49 | 1015.4 |
| 20260904170221 | 93 | 226 | 3.0 | 7.0 | 0.00 | 0.00 | 0.00 | 50 | 1015.5 |
| 20260904165720 | 93 | 200 | 5.0 | 14.0 | 0.00 | 0.00 | 0.00 | 50 | 1015.5 |
| 20260904165215 | 93 | 181 | 0.0 | 10.0 | 0.00 | 0.00 | 0.00 | 50 | 1015.5 |
| 20260904164709 | 93 | 159 | 2.0 | 6.0 | 0.00 | 0.00 | 0.00 | 51 | 1015.4 |
| 20260904164204 | 94 | 18 | 1.0 | 6.0 | 0.00 | 0.00 | 0.00 | 49 | 1015.4 |
| 20260904163700 | 94 | 125 | 2.0 | 7.0 | 0.00 | 0.00 | 0.00 | 50 | 1015.5 |
| 20260904163155 | 92 | 66 | 2.0 | 6.0 | 0.00 | 0.00 | 0.00 | 52 | 1015.6 |
| 20260904162654 | 91 | 152 | 4.0 | 9.0 | 0.00 | 0.00 | 0.00 | 53 | 1015.5 |
| 20260904162149 | 92 | 81 | 3.0 | 9.0 | 0.00 | 0.00 | 0.00 | 54 | 1015.4 |
| 20260904161645 | 90 | 165 | 3.0 | 11.0 | 0.00 | 0.00 | 0.00 | 55 | 1015.5 |